PSLV R/B, 43287

Orbit data source: Space-Track

PSLV R/B, 43287 is space debris in HEO originally from a launch on Wed, 11 Apr 2018 UTC launched from the Sirharikota (SRI). Debris objects in space refer to the collection of defunct objects orbiting the Earth. Examples of debris include non-operational satellites, rocket bodies, and fragments generated from explosions, collisions, or faulty payload assembly.

Loading next visibility...
Identifier
43287, 2018-035B
Orbit
HEO
Country
Flag of ININ / IND
Related business
Manufacturer
VSSC/LPSC
Mission
Spacecraft
Bus & Motor
PS-4, Unknown motor
Mass
920 kg wet, 920 kg dry
Launch date (UTC)
2018-04-11 (8 years ago)
Launch vehicle
Unknown
Launch site
Sirharikota (SRI)
Object type
Payload
Rocket body
Debris
Shape & HBR
Cyl + Cyl + 2 Nozzle, 1.5 m
Radar Cross Section
3.727 m², Large (>1 m²)

Expand to show TLE details & history
Last TLE update: 19 hours ago

TLE from 19 hours ago
0 PSLV R/B
1 43287U 18035B   26127.29619035  .00025416  00000-0  11202-2 0  9990
2 43287  19.0242 115.8980 5624071 130.1433 294.6304  4.68910131124329
Epoch: 2026-05-07T07:06Z
TLE epoch observation values (Epoch: 2026-05-07T07:06:30.846Z)
Latitude
Longitude
144.12998°
Altitude
9,779.884 km
Speed
4.786 km/s
True Right ascension
07h 43m 36s
True Declination
0° 00' 00"
Sunlit
Object was in daylight at epoch
Visualization orbit readout
Latitude
Unknown
Longitude
Unknown
Altitude
Unknown
Speed
Unknown
Apparent Right ascension
Unknown
Apparent Declination
Unknown
Sunlit
N/A
Visualization observer readout
Local Sidereal Time
09:55:28
Azimuth
Unknown
Elevation
Unknown
Doppler factor
Unknown
Orbital elements
Apogee altitude
17,186.55 km
Perigee altitude
221.769 km
Semi-major axis
15,082.297 km
Eccentricity
0.56241
Inclination
19.0242°
RAAN
115.898°
Arg. of periapsis
130.1433°
True anomaly
229.92467°
Mean anomaly
294.6304°
Eccentric anomaly
262.67017°
Mean motion
1.17177 °/min
Orbital period
307.23 mins
BSTAR
0.0011202
Loading maneuver chart data...
Computing Atmospheric mass density...
Loading historical data...
Loading historical data...
Loading historical data...
Loading historical data...
Loading historical data...
Loading historical data...
Loading historical data...
Other satellites on launch #35 in the year 2018 (2018-04-11 UTC)

Documentation

Showing up to 5 results
|